Home > Weather > Nea Smyrni > Past weeks

Flag for Greece Weather for the Past 2 Weeks in Nea Smyrni, Greece

Now
59 °F

Passing clouds.


Feels Like: 57 °F
Forecast: 53 / 69 °F
Wind: 9 mph from Southwest

Location: Eleftherios Venizelos International Airport

Current Time: May 3, 2016 at 9:58:18 PM

Latest Report: May 3, 2016 at 9:20 PM


Visibility: N/A

Pressure: 29.68 "Hg

Humidity: 63%

Dew Point: 46 °F

Location of Nea SmyrniLocation

Historic Weather in Nea Smyrni — Graph

°F

Nea Smyrni Temperature Yesterday

Maximum temperature yesterday: 68 °F (at 12:20 PM)
Minimum temperature yesterday: 50 °F (at 4:50 AM)
Average temperature yesterday: 62 °F

High & Low Weather Summary for the Past Weeks

 TemperatureHumidityPressure
High86 °F (Apr 19, 12:50 PM)88% (May 2, 11:20 PM)30.30 "Hg (May 2, 11:20 PM)
Low45 °F (Apr 27, 4:50 AM)15% (Apr 19, 2:20 PM)29.53 "Hg (Apr 24, 4:50 PM)
Average64 °F50%29.90 "Hg
* Reported Apr 18 8:20 PM — May 3 8:50 PM, Nea Smyrni, Weather by CustomWeather, © 2016

Note: Actual official high and low records may vary slightly from our data, if they occured in-between our weather recording intervals... More about our weather records

Advertising

Nea Smyrni Weather History for the Previous 24 Hours

Scroll right to see more
 ConditionsComfort  
Time TempWeatherWind HumidityBarometerVisibility
8:50 PM
Tue, May 3
59 °FScattered clouds.10 mph59%29.68 "HgN/A
8:20 PM61 °FScattered clouds.12 mph52%29.68 "HgN/A
7:50 PM63 °FBroken clouds.13 mph56%29.65 "HgN/A
7:20 PM63 °FScattered clouds.12 mph49%29.65 "HgN/A
6:50 PM64 °FScattered clouds.12 mph46%29.65 "HgN/A
6:20 PM64 °FScattered clouds.16 mph49%29.68 "HgN/A
5:50 PM64 °FScattered clouds.15 mph52%29.68 "HgN/A
5:20 PM64 °FScattered clouds.17 mph46%29.68 "HgN/A
4:50 PM66 °FScattered clouds.15 mph40%29.68 "HgN/A
4:20 PM64 °FScattered clouds.14 mph46%29.68 "HgN/A
3:50 PM64 °FScattered clouds.14 mph46%29.68 "HgN/A
3:20 PM63 °FScattered clouds.10 mph52%29.71 "HgN/A
2:20 PM55 °FBroken clouds.10 mph77%29.71 "HgN/A
1:50 PM55 °FThunderstorms. Broken clouds.16 mph72%29.74 "Hg6 mi
1:20 PM57 °FThunderstorms. Broken clouds.20 mph67%29.71 "Hg6 mi
12:50 PM66 °FLight rain. Broken clouds.12 mph40%29.71 "HgN/A
11:50 AM66 °FScattered clouds.14 mph40%29.74 "HgN/A
11:20 AM66 °FBroken clouds.13 mph40%29.71 "HgN/A
10:50 AM68 °FScattered clouds.17 mph38%29.71 "HgN/A
10:20 AM66 °FScattered clouds.16 mph43%29.71 "HgN/A
9:50 AM66 °FScattered clouds.15 mph46%29.74 "HgN/A
9:20 AM64 °FScattered clouds.17 mph46%29.71 "HgN/A
8:50 AM63 °FScattered clouds.10 mph52%29.71 "HgN/A
8:20 AM61 °FScattered clouds.9 mph59%29.71 "HgN/A
7:50 AM59 °FScattered clouds.6 mph59%29.71 "HgN/A
6:50 AM57 °FPassing clouds.9 mph59%29.71 "HgN/A
5:50 AM55 °FPassing clouds.10 mph59%29.71 "HgN/A
5:20 AM55 °FPassing clouds.8 mph59%29.71 "HgN/A
4:20 AM57 °FPassing clouds.2 mph63%29.74 "HgN/A
3:50 AM57 °FPassing clouds.2 mph67%29.74 "HgN/A
3:20 AM57 °FPassing clouds.3 mph67%29.74 "HgN/A
2:50 AM59 °FPassing clouds.7 mph68%29.74 "HgN/A
2:20 AM57 °FPassing clouds.5 mph77%29.74 "HgN/A
1:50 AM59 °FPassing clouds.1 mph72%29.74 "HgN/A
12:50 AM61 °FPassing clouds.3 mph72%29.74 "HgN/A
12:20 AM61 °FPassing clouds.10 mph83%29.74 "HgN/A
11:50 PM
Mon, May 2
63 °FPassing clouds.8 mph83%29.74 "HgN/A
11:20 PM63 °FPassing clouds.9 mph88%29.74 "HgN/A
10:50 PM64 °FPartly cloudy.10 mph83%29.74 "HgN/A
10:20 PM64 °FPartly cloudy.12 mph83%29.74 "HgN/A
9:50 PM64 °FPassing clouds.12 mph83%29.74 "HgN/A
9:20 PM63 °FPassing clouds.14 mph83%29.74 "HgN/A
Weather by CustomWeather, © 2016

See weather overviewHow to use our weather pages